Погода в Котабато Сити

Филиппины     7°12′04″N   124°15′04″E
темп.,
°C
ветер,
м/с
пор.,
м/с
влажн.,
%
обл.,
%
осадки,
мм/ч
давл.,
гПа
погр.,
м
6 марта, сб
сб623:00+26юв257367 0.0 1013284
02:00+24вюв247835 0.0 1011160
05:00+23вюв238367 0.0 1012106
08:00+27вюв237081 0.0 1013321
11:00+32св154927 0.0 10131316
14:00+32зсз445456 0.1 1010933
17:00+29з356556 0.4 1011393
20:00+27ююз127678 1.3 101272
7 марта, вс
вс723:00+25вюв238293 0.1 101388
02:00+23вюв238761 0.1 1011151
05:00+22вюв348525 0.0 1012144
08:00+25юв357212 0.0 1013393
11:00+31в364258 0.0 10121018
14:00+33с153779 0.0 10091463
17:00+29зсз3460100 0.0 1009310
20:00+26ююз1171100 0.0 101185
8 марта, пн
пн823:00+24всв1273100 0.0 101273
02:00+24юв1276100 0.0 101168
05:00+23вюв2278100 0.0 101186
08:00+26вюв3467100 0.0 1013331
11:00+32св1348100 0.0 10121049
14:00+32зсз3349100 0.0 1009871
17:00+29з356453 0.0 1009298
20:00+26юз347777 0.4 1011171
9 марта, вт
вт923:00+25юв1278100 0.1 101264
02:00+24вюв2380100 0.1 101191
05:00+24юв2277100 0.0 1011124
08:00+27юв2367100 0.0 1013350
11:00+32св1446100 0.0 10121114
14:00+32зсз445377 0.0 1009907
17:00+29з356729 0.3 1009371
20:00+26ю117556 1.3 101276
10 марта, ср
ср1023:00+24вюв2378100 0.0 1013141
02:00+24юв2378100 0.0 1011110
05:00+23вюв2380100 0.0 101199
08:00+26вюв2369100 0.0 1013319
11:00+32ссз1251100 0.0 10121025
14:00+30зсз4561100 0.1 1009624
17:00+27з467467 1.1 1009434
20:00+26юз138483 3.6 1011222